YG1CIC-13 Weather Reports


Display with metric or nautical units.
time (UTC)temp
F
wind
direction
speed
MPH
gust
MPH
rain 1hr
in
rain 24hr
in
rain mn
in
humidity
%
barometer
mb
20260508092749 94 0 0.0 0.0 0.00 0.00 0.00 66
20260508091748 94 0 0.0 0.0 0.00 0.00 0.00 66
20260508090748 94 0 0.0 0.0 0.00 0.00 0.00 66
20260508085747 94 0 0.0 0.0 0.00 0.00 0.00 65
20260508084755 94 0 0.0 0.0 0.00 0.00 0.00 66
20260508082746 94 0 0.0 0.0 0.00 0.00 0.00 66
20260508081746 94 0 0.0 0.0 0.00 0.00 0.00 65
20260508080745 96 0 0.0 0.0 0.00 0.00 0.00 63
20260508075744 95 0 0.0 0.0 0.00 0.00 0.00 63
20260508074744 96 0 0.0 0.0 0.00 0.00 0.00 60
20260508073743 96 0 0.0 0.0 0.00 0.00 0.00 61
20260508072750 96 0 0.0 0.0 0.00 0.00 0.00 61
20260508071743 97 0 0.0 0.0 0.00 0.00 0.00 60
20260508070742 96 0 0.0 0.0 0.00 0.00 0.00 61
20260508065741 96 0 0.0 0.0 0.00 0.00 0.00 59
20260508064741 97 0 0.0 0.0 0.00 0.00 0.00 60
20260508063740 97 0 0.0 0.0 0.00 0.00 0.00 60
20260508062740 97 0 0.0 0.0 0.00 0.00 0.00 59
20260508061739 98 0 0.0 0.0 0.00 0.00 0.00 58
20260508060738 98 0 0.0 0.0 0.00 0.00 0.00 58
20260508055738 97 0 0.0 0.0 0.00 0.00 0.00 58
20260508054737 99 0 0.0 0.0 0.00 0.00 0.00 58
20260508053737 98 0 0.0 0.0 0.00 0.00 0.00 59
20260508052736 99 0 0.0 0.0 0.00 0.00 0.00 58
20260508051742 99 0 0.0 0.0 0.00 0.00 0.00 58
20260508050735 98 0 0.0 0.0 0.00 0.00 0.00 59
20260508045734 98 0 0.0 0.0 0.00 0.00 0.00 61
20260508044734 98 0 0.0 0.0 0.00 0.00 0.00 61
20260508043733 98 0 0.0 0.0 0.00 0.00 0.00 62
20260508042732 99 0 0.0 0.0 0.00 0.00 0.00 60
20260508041732 99 0 0.0 0.0 0.00 0.00 0.00 61
20260508040738 98 0 0.0 0.0 0.00 0.00 0.00 60
20260508035731 98 0 0.0 0.0 0.00 0.00 0.00 59
20260508034730 99 0 0.0 0.0 0.00 0.00 0.00 58
20260508033730 98 0 0.0 0.0 0.00 0.00 0.00 60
20260508032729 98 0 0.0 0.0 0.00 0.00 0.00 60
20260508031728 99 0 0.0 0.0 0.00 0.00 0.00 59
20260508030728 99 0 0.0 0.0 0.00 0.00 0.00 59
20260508025727 98 0 0.0 0.0 0.00 0.00 0.00 60
20260508024727 101 0 0.0 0.0 0.00 0.00 0.00 57
20260508023726 100 0 0.0 0.0 0.00 0.00 0.00 59
20260508022725 101 0 0.0 0.0 0.00 0.00 0.00 57
20260508021725 103 0 0.0 0.0 0.00 0.00 0.00 55
20260508020724 104 0 0.0 0.0 0.00 0.00 0.00 54
20260508015724 101 0 0.0 0.0 0.00 0.00 0.00 58
20260508014723 98 0 0.0 0.0 0.00 0.00 0.00 61
20260508013722 96 0 0.0 0.0 0.00 0.00 0.00 63
20260508012722 95 0 0.0 0.0 0.00 0.00 0.00 66
20260508011721 95 0 0.0 0.0 0.00 0.00 0.00 67
20260508010720 91 0 0.0 0.0 0.00 0.00 0.00 72
20260508005720 93 0 0.0 0.0 0.00 0.00 0.00 69
20260508004719 93 0 0.0 0.0 0.00 0.00 0.00 71
20260508003718 91 0 0.0 0.0 0.00 0.00 0.00 74
20260508002718 91 0 0.0 0.0 0.00 0.00 0.00 75
20260508001717 87 0 0.0 0.0 0.00 0.00 0.00 84
20260508000724 85 0 0.0 0.0 0.00 0.00 0.00 87
20260507235716 83 0 0.0 0.0 0.00 0.00 0.00 89
20260507234715 83 0 0.0 0.0 0.00 0.00 0.00 95
20260507233715 82 0 0.0 0.0 0.00 0.00 0.00 96
20260507232714 82 0 0.0 0.0 0.00 0.00 0.00 93
20260507231714 81 0 0.0 0.0 0.00 0.00 0.00 96
20260507230714 81 0 0.0 0.0 0.00 0.00 0.00 95
20260507225713 81 0 0.0 0.0 0.00 0.00 0.00 98
20260507224712 81 0 0.0 0.0 0.00 0.00 0.00 93
20260507223711 81 0 0.0 0.0 0.00 0.00 0.00 95
20260507222711 81 0 0.0 0.0 0.00 0.00 0.00 96
20260507221710 81 0 0.0 0.0 0.00 0.00 0.00 91
20260507220710 81 0 0.0 0.0 0.00 0.00 0.00 90
20260507215709 81 0 0.0 0.0 0.00 0.00 0.00 90
20260507214709 81 0 0.0 0.0 0.00 0.00 0.00 91
20260507213708 81 0 0.0 0.0 0.00 0.00 0.00 89
20260507212707 81 0 0.0 0.0 0.00 0.00 0.00 89
20260507211707 82 0 0.0 0.0 0.00 0.00 0.00 92
20260507210706 82 0 0.0 0.0 0.00 0.00 0.00 90
20260507205705 82 0 0.0 0.0 0.00 0.00 0.00 89
20260507204705 82 0 0.0 0.0 0.00 0.00 0.00 90
20260507203704 82 0 0.0 0.0 0.00 0.00 0.00 89
20260507202704 82 0 0.0 0.0 0.00 0.00 0.00 90
20260507201703 82 0 0.0 0.0 0.00 0.00 0.00 89
20260507200702 82 0 0.0 0.0 0.00 0.00 0.00 86
20260507195702 82 0 0.0 0.0 0.00 0.00 0.00 88
20260507194701 82 0 0.0 0.0 0.00 0.00 0.00 89
20260507193701 83 0 0.0 0.0 0.00 0.00 0.00 87
20260507192700 83 0 0.0 0.0 0.00 0.00 0.00 88
20260507191659 83 0 0.0 0.0 0.00 0.00 0.00 89
20260507190659 83 0 0.0 0.0 0.00 0.00 0.00 88
20260507184658 83 0 0.0 0.0 0.00 0.00 0.00 89
20260507183658 83 0 0.0 0.0 0.00 0.00 0.00 87
20260507182657 83 0 0.0 0.0 0.00 0.00 0.00 88
20260507181656 84 0 0.0 0.0 0.00 0.00 0.00 87
20260507180656 84 0 0.0 0.0 0.00 0.00 0.00 86
20260507175655 84 0 0.0 0.0 0.00 0.00 0.00 86
20260507174655 84 0 0.0 0.0 0.00 0.00 0.00 88
20260507173654 84 0 0.0 0.0 0.00 0.00 0.00 86
20260507172653 84 0 0.0 0.0 0.00 0.00 0.00 83
20260507171653 84 0 0.0 0.0 0.00 0.00 0.00 85
20260507170652 85 0 0.0 0.0 0.00 0.00 0.00 86
20260507165652 85 0 0.0 0.0 0.00 0.00 0.00 85
20260507164651 85 0 0.0 0.0 0.00 0.00 0.00 87
20260507163650 85 0 0.0 0.0 0.00 0.00 0.00 85
20260507162650 85 0 0.0 0.0 0.00 0.00 0.00 86
20260507161649 85 0 0.0 0.0 0.00 0.00 0.00 86
20260507160649 85 0 0.0 0.0 0.00 0.00 0.00 86
20260507155649 85 0 0.0 0.0 0.00 0.00 0.00 86
20260507154647 85 0 0.0 0.0 0.00 0.00 0.00 87
20260507153647 85 0 0.0 0.0 0.00 0.00 0.00 87
20260507152646 85 0 0.0 0.0 0.00 0.00 0.00 86
20260507151646 85 0 0.0 0.0 0.00 0.00 0.00 86
20260507150645 85 0 0.0 0.0 0.00 0.00 0.00 86
20260507145645 85 0 0.0 0.0 0.00 0.00 0.00 86
20260507144644 85 0 0.0 0.0 0.00 0.00 0.00 84
20260507143643 85 0 0.0 0.0 0.00 0.00 0.00 85
20260507142643 85 0 0.0 0.0 0.00 0.00 0.00 83
20260507141642 85 0 0.0 0.0 0.00 0.00 0.00 85
20260507140642 85 0 0.0 0.0 0.00 0.00 0.00 84
20260507135641 85 0 0.0 0.0 0.00 0.00 0.00 84
20260507134640 86 0 0.0 0.0 0.00 0.00 0.00 84
20260507133640 86 0 0.0 0.0 0.00 0.00 0.00 83
20260507132639 86 0 0.0 0.0 0.00 0.00 0.00 82
20260507131639 86 0 0.0 0.0 0.00 0.00 0.00 81
20260507130638 86 0 0.0 0.0 0.00 0.00 0.00 81
20260507125637 86 0 0.0 0.0 0.00 0.00 0.00 80
20260507124644 86 0 0.0 0.0 0.00 0.00 0.00 80
20260507123636 87 0 0.0 0.0 0.00 0.00 0.00 80
20260507122635 87 0 0.0 0.0 0.00 0.00 0.00 79
20260507121634 87 0 0.0 0.0 0.00 0.00 0.00 79
20260507120633 87 0 0.0 0.0 0.00 0.00 0.00 78
20260507115632 87 0 0.0 0.0 0.00 0.00 0.00 79
20260507114631 87 0 0.0 0.0 0.00 0.00 0.00 79
20260507113631 88 0 0.0 0.0 0.00 0.00 0.00 79
20260507112631 88 0 0.0 0.0 0.00 0.00 0.00 79
20260507111631 88 0 0.0 0.0 0.00 0.00 0.00 78
20260507110631 89 0 0.0 0.0 0.00 0.00 0.00 78
20260507105631 89 0 0.0 0.0 0.00 0.00 0.00 78
20260507104630 89 0 0.0 0.0 0.00 0.00 0.00 76
20260507103630 89 0 0.0 0.0 0.00 0.00 0.00 75
20260507102630 90 0 0.0 0.0 0.00 0.00 0.00 74
20260507101629 90 0 0.0 0.0 0.00 0.00 0.00 74
20260507100629 91 0 0.0 0.0 0.00 0.00 0.00 72
20260507095628 92 0 0.0 0.0 0.00 0.00 0.00 70
20260507094628 92 0 0.0 0.0 0.00 0.00 0.00 69